Location: Borzechowo
(53.8876°N, 18.3492°E)
Time: 11:40:00
(UTC+02:00)

ISS - Visible Passes

Search period start: 22 September 2018 00:00
Search period end: 02 October 2018 00:00
Orbit: 403 x 408 km, 51.6° (Epoch: 22 September)

Date Brightness Start Highest point End Pass type
(mag) Time Alt. Az. Time Alt. Az. Time Alt. Az.
22 Sep -1.2 20:28:50 10° S 20:28:51 10° S 20:28:51 10° S visible
23 Sep -1.1 21:11:57 10° SW 21:12:17 12° SW 21:12:17 12° SW visible
24 Sep -2.4 20:20:27 10° SSW 20:22:49 24° SSE 20:22:49 24° SSE visible
25 Sep -2.0 19:29:12 10° S 19:31:28 17° SSE 19:33:12 12° ESE visible
25 Sep -2.0 21:04:16 10° WSW 21:05:53 25° SW 21:05:53 25° SW visible
26 Sep -3.1 20:12:32 10° SW 20:15:37 36° SSE 20:16:08 34° SE visible
26 Sep -0.7 21:48:36 10° W 21:48:48 11° W 21:48:48 11° W visible
27 Sep -2.6 19:20:56 10° SW 19:23:48 27° SSE 19:26:17 12° E visible
27 Sep -2.7 20:56:43 10° WSW 20:58:57 37° SW 20:58:57 37° SW visible
28 Sep -3.5 20:04:51 10° WSW 20:08:04 49° SSE 20:09:02 35° ESE visible
28 Sep -0.9 21:41:07 10° W 21:41:42 14° W 21:41:42 14° W visible
29 Sep -3.1 19:13:03 10° SW 19:16:10 40° SSE 19:19:03 12° E visible
29 Sep -3.0 20:49:11 10° W 20:51:43 44° SW 20:51:43 44° SW visible
30 Sep -3.6 19:57:15 10° WSW 20:00:31 58° S 20:01:42 34° ESE visible
30 Sep -1.0 21:33:38 10° W 21:34:21 15° W 21:34:21 15° W visible
01 Oct -3.4 19:05:20 10° WSW 19:08:34 52° S 19:11:39 11° E visible
01 Oct -3.0 20:41:38 10° W 20:44:18 44° SW 20:44:18 44° SW visible
